Location: Martz Observatory
(42.0083°N, 79.0667°W)
Time: 17:34:05
(UTC-04:00)

Meteor 1-23 Rocket - Visible Passes

Search period start: 26 April 2017 00:00
Search period end: 06 May 2017 00:00
Orbit: 839 x 887 km, 81.3° (Epoch: 25 April)

Date Brightness Start Highest point End Pass type
(mag) Time Alt. Az. Time Alt. Az. Time Alt. Az.
26 Apr 5.2 01:44:49 43° NE 01:44:49 43° NE 01:48:40 10° NNE visible
26 Apr 6.0 03:27:05 18° WNW 03:27:05 18° WNW 03:30:33 10° NNW visible
27 Apr 5.2 01:36:29 43° NE 01:36:29 43° NE 01:40:18 10° NNE visible
27 Apr 6.0 03:18:44 18° WNW 03:18:44 18° WNW 03:22:13 10° NNW visible
28 Apr 5.2 01:28:07 42° NE 01:28:07 42° NE 01:31:57 10° NNE visible
28 Apr 6.0 03:10:23 18° WNW 03:10:23 18° WNW 03:13:54 10° NNW visible
29 Apr 5.2 01:19:45 42° NE 01:19:45 42° NE 01:23:36 10° NNE visible
29 Apr 6.0 03:02:01 19° WNW 03:02:01 19° WNW 03:05:34 10° NNW visible
30 Apr 5.1 01:11:23 42° NE 01:11:23 42° NE 01:15:14 10° NNE visible
30 Apr 6.0 02:53:38 19° WNW 02:53:38 19° WNW 02:57:14 10° NNW visible
01 May 5.1 01:02:59 43° NE 01:02:59 43° NE 01:06:53 10° NNE visible
01 May 6.0 02:45:14 19° WNW 02:45:14 19° WNW 02:48:54 10° NNW visible
02 May 5.1 00:54:34 43° NE 00:54:34 43° NE 00:58:31 10° NNE visible
02 May 6.0 02:36:50 19° WNW 02:36:50 19° WNW 02:40:34 10° NNW visible
03 May 5.0 00:46:09 44° NE 00:46:09 44° NE 00:50:10 10° NNE visible
03 May 6.0 02:28:25 19° WNW 02:28:25 19° WNW 02:32:14 10° NNW visible
04 May 5.0 00:37:43 45° NE 00:37:43 45° NE 00:41:48 10° NNE visible
04 May 6.0 02:19:58 20° WNW 02:19:58 20° WNW 02:23:54 10° NNW visible
05 May 4.9 00:29:16 46° NE 00:29:16 46° NE 00:33:27 10° NNE visible
05 May 6.0 02:11:31 20° WNW 02:11:34 20° WNW 02:15:35 10° NNW visible
